Weather History for Gainesville, FL

Change the Weather History Date:

Monday, June 17, 2013

  Actual Average Record
Temperature  
Mean Temperature 83 °F 80 °F  
Max Temperature 93 °F 90 °F 101 °F (1921)
Min Temperature 73 °F 70 °F 62 °F (1980)
Degree Days  
Heating Degree Days 0 0  
Month to date heating degree days 0 0  
Since 1 June heating degree days 0 0  
Since 1 July heating degree days 1040 1218  
Cooling Degree Days 18 15  
Month to date cooling degree days 273 239  
Year to date cooling degree days 805 749  
Since 1 June cooling degree days 273 239  
Growing Degree Days 33 (Base 50)    
Moisture  
Dew Point 72 °F    
Average Humidity 71    
Maximum Humidity 94    
Minimum Humidity 47    
Precipitation  
Precipitation 0.00 in 0.27 in 3.00 in (1891)
Month to date precipitation 5.39 3.67  
Year to date precipitation 16.39 19.66  
Snow  
Snow 0.00 in 0.00 in 0.00 in ()
Month to date snowfall 0.0 0.0  
Since 1 June snowfall 0.0 0.0  
Since 1 July snowfall 0.0 0.0  
Snow Depth 0.00 in    
Sea Level Pressure  
Sea Level Pressure 30.04 in    
Wind  
Wind Speed 5 mph (SSW)    
Max Wind Speed 14 mph    
Max Gust Speed 18 mph    
Visibility 9 miles    
Events      
T = Trace of Precipitation, MM = Missing Value Source: NWS Daily Summary

Daily Weather History Graph

Daily Weather History Graph

Search for Another Location

Airport:

Trip Planner

Search our weather history database for the weather conditions in past years. The results will help you decide how hot, cold, wet, or windy it might be!

Date:

Astronomy

Jun. 17, 2013 Rise Set
Actual Time 6:28 AM EDT 8:31 PM EDT
Civil Twilight 6:01 AM EDT 8:58 PM EDT
Nautical Twilight 5:28 AM EDT 9:32 PM EDT
Astronomical Twilight 4:52 AM EDT 10:07 PM EDT
Moon 2:30 PM EDT (6/17) 1:39 AM EDT (6/17)
Length of Visible Light 14h 57m
Length of Day
14h 03m
First Quarter, 60% of the Moon is Illuminated
Jun 17
First Quarter
Jun 23
Full
Jun 30
Last Quarter
Jul 8
New
Jul 15
First Quarter

Hourly Weather History & Observations

Time (EDT) Temp. Heat Index Dew Point Humidity Pressure Visibility Wind Dir Wind Speed Gust Speed Precip Events Conditions
12:53 AM 75.9 °F - 73.0 °F 91% 30.08 in 9.0 mi Calm Calm - N/A   Partly Cloudy
1:53 AM 75.0 °F - 73.0 °F 94% 30.07 in 6.0 mi Calm Calm - N/A   Overcast
2:53 AM 75.0 °F - 73.0 °F 94% 30.05 in 8.0 mi Calm Calm - N/A   Clear
3:42 AM 75.2 °F - 73.4 °F 94% 30.04 in 8.0 mi SE 5.8 mph - N/A   Scattered Clouds
3:53 AM 75.9 °F - 73.9 °F 94% 30.03 in 8.0 mi SE 6.9 mph - N/A   Scattered Clouds
4:53 AM 75.9 °F - 73.9 °F 94% 30.03 in 7.0 mi SE 3.5 mph - N/A   Partly Cloudy
5:25 AM 75.2 °F - 73.4 °F 94% 30.05 in 8.0 mi SE 4.6 mph - N/A   Mostly Cloudy
5:44 AM 77.0 °F - 73.4 °F 89% 30.05 in 9.0 mi SSE 4.6 mph - N/A   Overcast
5:53 AM 75.9 °F - 73.9 °F 94% 30.05 in 9.0 mi SSE 4.6 mph - N/A   Overcast
6:53 AM 75.9 °F - 73.9 °F 94% 30.05 in 8.0 mi South 3.5 mph - N/A   Overcast
7:53 AM 77.0 °F - 73.9 °F 90% 30.06 in 9.0 mi Calm Calm - N/A   Overcast
8:14 AM 78.8 °F - 73.4 °F 83% 30.08 in 9.0 mi Calm Calm - N/A   Overcast
8:42 AM 78.8 °F - 75.2 °F 89% 30.08 in 10.0 mi SSW 4.6 mph - N/A   Overcast
8:53 AM 78.1 °F - 73.9 °F 87% 30.07 in 10.0 mi South 3.5 mph - N/A   Overcast
9:00 AM 78.8 °F - 73.4 °F 83% 30.08 in 10.0 mi Calm Calm - N/A   Overcast
9:53 AM 79.0 °F - 73.9 °F 84% 30.07 in 10.0 mi Calm Calm - N/A   Overcast
10:41 AM 82.4 °F 89.5 °F 75.2 °F 79% 30.07 in 10.0 mi Variable 4.6 mph - N/A   Partly Cloudy
10:53 AM 82.9 °F 89.4 °F 73.9 °F 74% 30.06 in 10.0 mi West 4.6 mph - N/A   Scattered Clouds
11:53 AM 87.1 °F 95.4 °F 73.9 °F 65% 30.05 in 10.0 mi North 4.6 mph - N/A   Partly Cloudy
12:53 PM 88.0 °F 94.7 °F 72.0 °F 59% 30.04 in 10.0 mi Variable 5.8 mph - N/A   Partly Cloudy
1:53 PM 89.1 °F 94.1 °F 70.0 °F 53% 30.04 in 10.0 mi West 5.8 mph - N/A   Mostly Cloudy
2:53 PM 90.0 °F 93.6 °F 68.0 °F 48% 30.01 in 10.0 mi Variable 3.5 mph - N/A   Scattered Clouds
3:53 PM 91.9 °F 98.4 °F 71.1 °F 50% 30.00 in 10.0 mi WSW 6.9 mph - N/A   Partly Cloudy
4:53 PM 91.9 °F 97.4 °F 70.0 °F 48% 29.98 in 10.0 mi SW 5.8 mph - N/A   Partly Cloudy
5:53 PM 91.0 °F 95.2 °F 68.0 °F 47% 29.97 in 10.0 mi West 11.5 mph 18.4 mph N/A   Mostly Cloudy
6:53 PM 90.0 °F 94.5 °F 69.1 °F 50% 29.98 in 10.0 mi WSW 12.7 mph - N/A   Partly Cloudy
7:53 PM 87.1 °F 90.6 °F 68.0 °F 53% 29.99 in 10.0 mi West 11.5 mph - N/A   Clear
8:53 PM 82.0 °F 85.9 °F 70.0 °F 67% 30.01 in 10.0 mi WSW 6.9 mph - N/A   Clear
9:53 PM 79.0 °F - 70.0 °F 74% 30.03 in 10.0 mi WSW 6.9 mph - N/A   Clear
10:53 PM 78.1 °F - 71.1 °F 79% 30.03 in 10.0 mi WSW 4.6 mph - N/A   Clear
11:53 PM 75.9 °F - 71.1 °F 85% 30.04 in 10.0 mi Calm Calm - N/A   Clear